{"data":{"norad_id":49413,"intl_designator":"2021-104F","name":"STARLINK-3157","alt_names":[],"object_type":"PAYLOAD","status":"ACTIVE","operator":null,"country":"US","launch_date":"2021-11-13","launch_site_code":"AFETR","launch_vehicle":null,"mission":null,"orbit_class":"UNKNOWN","rcs_meters":null,"size_class":null,"mass_kg":null,"dimensions":null,"purposes":["comms"],"wikipedia_slug":null,"has_3d_model":false,"image_url":null,"decayed_at":null,"tle_current":{"epoch":"2026-09-19T20:33:20.347200Z","epoch_age_seconds":96918,"freshness":"FRESH","line1":"1 49413U 21104F   26262.85648550  .00000493  00000+0  26305-4 0  9993","line2":"2 49413  53.1600  54.8675 0001115  85.8034 274.3096 15.33551027268255","mean_motion":15.33551027,"eccentricity":0.0001115,"inclination_deg":53.16,"raan_deg":54.8675,"arg_perigee_deg":85.8034,"mean_anomaly_deg":274.3096,"bstar":2.6305e-5,"rev_number":26825,"period_min":93.899712148281,"perigee_km":464.46469573051,"apogee_km":465.9907660655,"semimajor_km":6843.364730898,"source":"CELESTRAK","updated_at":"2026-09-20T09:00:39.255882Z"}}}